User: anonymous   Login
Location: Shenandoah County Park
(38.9356°N, 78.4524°W)
Time: 17:55:40
(UTC-04:00)
Language:

SPROUT - Orbit

View from above orbital plane
View from above orbital plane
View from above satellite
View from above satellite

Ground track
Ground track

The orbit data is extracted from the following two-line orbital elements,

1 39770U 14029E   23089.34381275  .00031519  00000-0  26217-2 0  9996
2 39770  97.9547 214.5649 0011007 215.8408 144.2031 14.98576835480336
Epoch (UTC): 30 March 2023 08:15:05
Eccentricity: 0.0011007
inclination: 97.9547°
perigee height: 563 km
apogee height: 579 km
right ascension of ascending node: 214.5649°
argument of perigee: 215.8408°
revolutions per day: 14.98576835
mean anomaly at epoch: 144.2031°
orbit number at epoch: 48033

The dashed part of the orbit path shows where the satellite is in the earth's shadow,  

DLR